Year,Month,Day,Hour,Minute,Value (Times are PST for windspeed in km/hr)
2010,04,02,00,00,17.00
2010,04,02,00,01,15.10
2010,04,02,00,02,14.90
2010,04,02,00,03,14.20
2010,04,02,00,04,14.30
2010,04,02,00,05,8.60
2010,04,02,00,06,16.60
2010,04,02,00,07,12.00
2010,04,02,00,08,10.10
2010,04,02,00,09,13.00
2010,04,02,00,10,9.40
2010,04,02,00,11,13.90
2010,04,02,00,12,15.40
2010,04,02,00,13,10.30
2010,04,02,00,14,7.10
2010,04,02,00,15,8.70
2010,04,02,00,16,6.80
2010,04,02,00,17,8.60
2010,04,02,00,18,6.10
2010,04,02,00,19,4.50
2010,04,02,00,20,11.30
2010,04,02,00,21,19.20
2010,04,02,00,22,17.80
2010,04,02,00,23,9.30
2010,04,02,00,24,15.50
2010,04,02,00,25,16.00
2010,04,02,00,26,13.90
2010,04,02,00,27,11.00
2010,04,02,00,28,13.00
2010,04,02,00,29,12.50
2010,04,02,00,30,12.10
2010,04,02,00,31,14.80
2010,04,02,00,32,17.30
2010,04,02,00,33,6.50
2010,04,02,00,34,7.20
2010,04,02,00,35,10.30
2010,04,02,00,36,6.70
2010,04,02,00,37,6.50
2010,04,02,00,38,15.20
2010,04,02,00,39,13.40
2010,04,02,00,40,11.60
2010,04,02,00,41,8.90
2010,04,02,00,42,19.90
2010,04,02,00,43,11.80
2010,04,02,00,44,12.40
2010,04,02,00,45,20.20
2010,04,02,00,46,12.50
2010,04,02,00,47,14.90
2010,04,02,00,48,17.20
2010,04,02,00,49,15.50
2010,04,02,00,50,14.00
2010,04,02,00,51,15.20
2010,04,02,00,52,13.20
2010,04,02,00,53,15.40
2010,04,02,00,54,15.30
2010,04,02,00,55,11.30
2010,04,02,00,56,12.10
2010,04,02,00,57,11.50
2010,04,02,00,58,13.70
2010,04,02,00,59,13.90
2010,04,02,01,00,11.80
2010,04,02,01,01,11.10
2010,04,02,01,02,21.10
2010,04,02,01,03,16.30
2010,04,02,01,04,5.80
2010,04,02,01,05,9.90
2010,04,02,01,06,13.50
2010,04,02,01,07,14.80
2010,04,02,01,08,8.40
2010,04,02,01,09,11.70
2010,04,02,01,10,11.00
2010,04,02,01,11,11.00
2010,04,02,01,12,9.80
2010,04,02,01,13,13.00
2010,04,02,01,14,15.80
2010,04,02,01,15,8.80
2010,04,02,01,16,7.60
2010,04,02,01,17,9.00
2010,04,02,01,18,8.20
2010,04,02,01,19,7.40
2010,04,02,01,20,7.50
2010,04,02,01,21,17.20
2010,04,02,01,22,15.50
2010,04,02,01,23,12.00
2010,04,02,01,24,14.90
2010,04,02,01,25,13.70
2010,04,02,01,26,6.30
2010,04,02,01,27,12.00
2010,04,02,01,28,20.40
2010,04,02,01,29,21.90
2010,04,02,01,30,14.40
2010,04,02,01,31,18.20
2010,04,02,01,32,11.90
2010,04,02,01,33,17.90
2010,04,02,01,34,18.40
2010,04,02,01,35,6.90
2010,04,02,01,36,2.80
2010,04,02,01,37,6.20
2010,04,02,01,38,11.50
2010,04,02,01,39,14.50
2010,04,02,01,40,9.00
2010,04,02,01,41,17.00
2010,04,02,01,42,14.70
2010,04,02,01,43,7.00
2010,04,02,01,44,11.90
2010,04,02,01,45,11.90
2010,04,02,01,46,22.50
2010,04,02,01,47,18.80
2010,04,02,01,48,14.60
2010,04,02,01,49,14.50
2010,04,02,01,50,11.90
2010,04,02,01,51,17.10
2010,04,02,01,52,13.00
2010,04,02,01,53,15.70
2010,04,02,01,54,15.90
2010,04,02,01,55,13.90
2010,04,02,01,56,14.70
2010,04,02,01,57,17.20
2010,04,02,01,58,13.50
2010,04,02,01,59,21.50
2010,04,02,02,00,13.40
2010,04,02,02,01,15.60
2010,04,02,02,02,13.50
2010,04,02,02,03,9.20
2010,04,02,02,04,16.50
2010,04,02,02,05,13.30
2010,04,02,02,06,14.80
2010,04,02,02,07,13.20
2010,04,02,02,08,15.20
2010,04,02,02,09,20.60
2010,04,02,02,10,11.30
2010,04,02,02,11,9.30
2010,04,02,02,12,16.50
2010,04,02,02,13,13.70
2010,04,02,02,14,11.10
2010,04,02,02,15,16.70
2010,04,02,02,16,16.00
2010,04,02,02,17,15.10
2010,04,02,02,18,16.30
2010,04,02,02,19,17.00
2010,04,02,02,20,18.90
2010,04,02,02,21,16.60
2010,04,02,02,22,17.40
2010,04,02,02,23,13.70
2010,04,02,02,24,8.50
2010,04,02,02,25,16.50
2010,04,02,02,26,11.40
2010,04,02,02,27,10.30
2010,04,02,02,28,10.70
2010,04,02,02,29,17.00
2010,04,02,02,30,21.10
2010,04,02,02,31,12.20
2010,04,02,02,32,11.10
2010,04,02,02,33,17.30
2010,04,02,02,34,10.70
2010,04,02,02,35,10.80
2010,04,02,02,36,21.10
2010,04,02,02,37,13.10
2010,04,02,02,38,10.10
2010,04,02,02,39,16.00
2010,04,02,02,40,16.90
2010,04,02,02,41,13.90
2010,04,02,02,42,16.50
2010,04,02,02,43,18.70
2010,04,02,02,44,11.00
2010,04,02,02,45,14.10
2010,04,02,02,46,12.90
2010,04,02,02,47,10.70
2010,04,02,02,48,16.30
2010,04,02,02,49,24.60
2010,04,02,02,50,13.00
2010,04,02,02,51,12.00
2010,04,02,02,52,11.70
2010,04,02,02,53,10.40
2010,04,02,02,54,6.90
2010,04,02,02,55,10.10
2010,04,02,02,56,13.20
2010,04,02,02,57,10.40
2010,04,02,02,58,5.10
2010,04,02,02,59,8.80
2010,04,02,03,00,7.00
2010,04,02,03,01,8.80
2010,04,02,03,02,8.60
2010,04,02,03,03,15.80
2010,04,02,03,04,13.20
2010,04,02,03,05,6.50
2010,04,02,03,06,17.60
2010,04,02,03,07,17.00
2010,04,02,03,08,13.90
2010,04,02,03,09,11.10
2010,04,02,03,10,19.90
2010,04,02,03,11,11.30
2010,04,02,03,12,19.60
2010,04,02,03,13,18.50
2010,04,02,03,14,13.50
2010,04,02,03,15,13.80
2010,04,02,03,16,14.50
2010,04,02,03,17,10.70
2010,04,02,03,18,17.20
2010,04,02,03,19,16.70
2010,04,02,03,20,9.50
2010,04,02,03,21,13.70
2010,04,02,03,22,5.60
2010,04,02,03,23,18.70
2010,04,02,03,24,14.90
2010,04,02,03,25,20.80
2010,04,02,03,26,17.10
2010,04,02,03,27,12.70
2010,04,02,03,28,11.40
2010,04,02,03,29,7.20
2010,04,02,03,30,11.80
2010,04,02,03,31,12.30
2010,04,02,03,32,9.90
2010,04,02,03,33,10.20
2010,04,02,03,34,14.90
2010,04,02,03,35,12.80
2010,04,02,03,36,11.40
2010,04,02,03,37,14.00
2010,04,02,03,38,7.00
2010,04,02,03,39,9.40
2010,04,02,03,40,14.60
2010,04,02,03,41,13.60
2010,04,02,03,42,21.90
2010,04,02,03,43,14.90
2010,04,02,03,44,14.30
2010,04,02,03,45,17.60
2010,04,02,03,46,16.20
2010,04,02,03,47,8.40
2010,04,02,03,48,11.00
2010,04,02,03,49,12.50
2010,04,02,03,50,8.80
2010,04,02,03,51,8.10
2010,04,02,03,52,13.90
2010,04,02,03,53,14.30
2010,04,02,03,54,15.70
2010,04,02,03,55,11.60
2010,04,02,03,56,12.60
2010,04,02,03,57,12.30
2010,04,02,03,58,8.40
2010,04,02,03,59,15.10
2010,04,02,04,00,14.70
2010,04,02,04,01,21.60
2010,04,02,04,02,15.90
2010,04,02,04,03,7.10
2010,04,02,04,04,5.50
2010,04,02,04,05,6.60
2010,04,02,04,06,12.50
2010,04,02,04,07,12.20
2010,04,02,04,08,12.70
2010,04,02,04,09,7.60
2010,04,02,04,10,8.50
2010,04,02,04,11,11.20
2010,04,02,04,12,10.30
2010,04,02,04,13,8.50
2010,04,02,04,14,7.40
2010,04,02,04,15,6.70
2010,04,02,04,16,4.90
2010,04,02,04,17,11.90
2010,04,02,04,18,10.90
2010,04,02,04,19,13.10
2010,04,02,04,20,11.60
2010,04,02,04,21,8.30
2010,04,02,04,22,12.70
2010,04,02,04,23,9.90
2010,04,02,04,24,13.70
2010,04,02,04,25,11.30
2010,04,02,04,26,8.70
2010,04,02,04,27,5.50
2010,04,02,04,28,4.60
2010,04,02,04,29,9.80
2010,04,02,04,30,8.40
2010,04,02,04,31,7.40
2010,04,02,04,32,9.70
2010,04,02,04,33,11.50
2010,04,02,04,34,4.70
2010,04,02,04,35,8.10
2010,04,02,04,36,11.80
2010,04,02,04,37,10.60
2010,04,02,04,38,9.40
2010,04,02,04,39,6.10
2010,04,02,04,40,5.50
2010,04,02,04,41,7.20
2010,04,02,04,42,11.40
2010,04,02,04,43,11.30
2010,04,02,04,44,8.80
2010,04,02,04,45,7.00
2010,04,02,04,46,6.80
2010,04,02,04,47,4.70
2010,04,02,04,48,5.70
2010,04,02,04,49,3.00
2010,04,02,04,50,5.30
2010,04,02,04,51,5.50
2010,04,02,04,52,2.70
2010,04,02,04,53,3.00
2010,04,02,04,54,2.20
2010,04,02,04,55,4.80
2010,04,02,04,56,4.60
2010,04,02,04,57,1.40
2010,04,02,04,58,4.10
2010,04,02,04,59,2.60
2010,04,02,05,00,0.70
2010,04,02,05,01,3.40
2010,04,02,05,02,6.50
2010,04,02,05,03,5.60
2010,04,02,05,04,9.70
2010,04,02,05,05,7.10
2010,04,02,05,06,8.70
2010,04,02,05,07,11.60
2010,04,02,05,08,11.40
2010,04,02,05,09,8.00
2010,04,02,05,10,10.70
2010,04,02,05,11,18.40
2010,04,02,05,12,24.10
2010,04,02,05,13,25.80
2010,04,02,05,14,22.00
2010,04,02,05,15,18.30
2010,04,02,05,16,17.30
2010,04,02,05,17,25.20
2010,04,02,05,18,21.40
2010,04,02,05,19,17.90
2010,04,02,05,20,11.40
2010,04,02,05,21,27.40
2010,04,02,05,22,19.80
2010,04,02,05,23,16.60
2010,04,02,05,24,22.90
2010,04,02,05,25,17.20
2010,04,02,05,26,15.20
2010,04,02,05,27,15.40
2010,04,02,05,28,16.80
2010,04,02,05,29,18.40
2010,04,02,05,30,19.70
2010,04,02,05,31,17.50
2010,04,02,05,32,22.60
2010,04,02,05,33,22.20
2010,04,02,05,34,20.60
2010,04,02,05,35,20.10
2010,04,02,05,36,18.50
2010,04,02,05,37,17.10
2010,04,02,05,38,12.70
2010,04,02,05,39,9.70
2010,04,02,05,40,10.80
2010,04,02,05,41,11.90
2010,04,02,05,42,13.40
2010,04,02,05,43,13.70
2010,04,02,05,44,21.90
2010,04,02,05,45,14.40
2010,04,02,05,46,15.00
2010,04,02,05,47,14.40
2010,04,02,05,48,17.90
2010,04,02,05,49,22.70
2010,04,02,05,50,20.20
2010,04,02,05,51,24.50
2010,04,02,05,52,18.40
2010,04,02,05,53,26.00
2010,04,02,05,54,22.40
2010,04,02,05,55,12.20
2010,04,02,05,56,28.50
2010,04,02,05,57,17.60
2010,04,02,05,58,16.70
2010,04,02,05,59,21.90
2010,04,02,06,00,28.80
2010,04,02,06,01,25.50
2010,04,02,06,02,18.80
2010,04,02,06,03,32.40
2010,04,02,06,04,24.30
2010,04,02,06,05,15.20
2010,04,02,06,06,21.50
2010,04,02,06,07,17.40
2010,04,02,06,08,23.40
2010,04,02,06,09,26.00
2010,04,02,06,10,13.30
2010,04,02,06,11,25.90
2010,04,02,06,12,20.80
2010,04,02,06,13,18.70
2010,04,02,06,14,26.90
2010,04,02,06,15,19.50
2010,04,02,06,16,15.80
2010,04,02,06,17,22.30
2010,04,02,06,18,22.50
2010,04,02,06,19,28.00
2010,04,02,06,20,21.90
2010,04,02,06,21,20.40
2010,04,02,06,22,21.40
2010,04,02,06,23,24.80
2010,04,02,06,24,25.40
2010,04,02,06,25,21.60
2010,04,02,06,26,26.70
2010,04,02,06,27,21.60
2010,04,02,06,28,17.00
2010,04,02,06,29,17.50
2010,04,02,06,30,23.80
2010,04,02,06,31,22.20
2010,04,02,06,32,20.80
2010,04,02,06,33,13.60
2010,04,02,06,34,13.20
2010,04,02,06,35,25.40
2010,04,02,06,36,19.80
2010,04,02,06,37,17.60
2010,04,02,06,38,18.50
2010,04,02,06,39,12.20
2010,04,02,06,40,11.30
2010,04,02,06,41,13.90
2010,04,02,06,42,24.20
2010,04,02,06,43,19.60
2010,04,02,06,44,18.10
2010,04,02,06,45,22.30
2010,04,02,06,46,18.30
2010,04,02,06,47,23.70
2010,04,02,06,48,19.00
2010,04,02,06,49,20.00
2010,04,02,06,50,16.00
2010,04,02,06,51,15.40
2010,04,02,06,52,19.50
2010,04,02,06,53,21.40
2010,04,02,06,54,20.60
2010,04,02,06,55,9.30
2010,04,02,06,56,12.10
2010,04,02,06,57,24.10
2010,04,02,06,58,12.10
2010,04,02,06,59,19.70
2010,04,02,07,00,29.20
2010,04,02,07,01,13.00
2010,04,02,07,02,14.50
2010,04,02,07,03,16.60
2010,04,02,07,04,19.90
2010,04,02,07,05,15.30
2010,04,02,07,06,27.20
2010,04,02,07,07,21.60
2010,04,02,07,08,33.20
2010,04,02,07,09,30.50
2010,04,02,07,10,25.30
2010,04,02,07,11,25.60
2010,04,02,07,12,25.60
2010,04,02,07,13,19.00
2010,04,02,07,14,22.00
2010,04,02,07,15,16.80
2010,04,02,07,16,20.40
2010,04,02,07,17,19.80
2010,04,02,07,18,16.90
2010,04,02,07,19,21.90
2010,04,02,07,20,26.60
2010,04,02,07,21,26.80
2010,04,02,07,22,17.80
2010,04,02,07,23,22.60
2010,04,02,07,24,19.50
2010,04,02,07,25,19.00
2010,04,02,07,26,31.00
2010,04,02,07,27,28.40
2010,04,02,07,29,28.20
2010,04,02,07,31,31.30
2010,04,02,07,32,34.50
2010,04,02,07,33,28.70
2010,04,02,07,34,19.10
2010,04,02,07,35,17.90
2010,04,02,07,36,22.50
2010,04,02,07,37,24.90
2010,04,02,07,38,17.90
2010,04,02,07,39,14.10
2010,04,02,07,40,13.00
2010,04,02,07,41,19.20
2010,04,02,07,42,10.00
2010,04,02,07,43,18.50
2010,04,02,07,44,23.50
2010,04,02,07,45,26.90
2010,04,02,07,46,33.50
2010,04,02,07,47,21.10
2010,04,02,07,48,21.20
2010,04,02,07,49,27.90
2010,04,02,07,50,26.60
2010,04,02,07,51,21.30
2010,04,02,07,52,20.70
2010,04,02,07,53,10.30
2010,04,02,07,54,25.80
2010,04,02,07,55,17.30
2010,04,02,07,56,22.10
2010,04,02,07,57,24.00
2010,04,02,07,58,15.10
2010,04,02,07,59,28.40
2010,04,02,08,00,31.70
2010,04,02,08,01,29.10
2010,04,02,08,02,26.60
2010,04,02,08,03,24.10
2010,04,02,08,04,17.00
2010,04,02,08,05,22.50
2010,04,02,08,06,26.50
2010,04,02,08,07,18.20
2010,04,02,08,08,19.30
2010,04,02,08,09,18.20
2010,04,02,08,10,21.00
2010,04,02,08,11,25.00
2010,04,02,08,12,19.10
2010,04,02,08,13,23.50
2010,04,02,08,14,18.30
2010,04,02,08,15,23.00
2010,04,02,08,16,17.50
2010,04,02,08,17,21.60
2010,04,02,08,18,28.20
2010,04,02,08,19,24.90
2010,04,02,08,20,21.50
2010,04,02,08,21,18.80
2010,04,02,08,22,23.90
2010,04,02,08,23,23.80
2010,04,02,08,24,24.30
2010,04,02,08,25,20.40
2010,04,02,08,26,20.20
2010,04,02,08,27,16.60
2010,04,02,08,28,14.40
2010,04,02,08,29,20.90
2010,04,02,08,30,17.50
2010,04,02,08,31,9.80
2010,04,02,08,32,20.50
2010,04,02,08,33,25.70
2010,04,02,08,34,17.80
2010,04,02,08,35,16.30
2010,04,02,08,36,19.00
2010,04,02,08,37,24.10
2010,04,02,08,38,22.00
2010,04,02,08,39,16.50
2010,04,02,08,40,22.30
2010,04,02,08,41,24.10
2010,04,02,08,42,24.10
2010,04,02,08,43,25.00
2010,04,02,08,44,23.90
2010,04,02,08,45,20.10
2010,04,02,08,46,24.10
2010,04,02,08,47,29.40
2010,04,02,08,48,30.40
2010,04,02,08,49,26.00
2010,04,02,08,50,25.50
2010,04,02,08,51,20.00
2010,04,02,08,52,20.10
2010,04,02,08,53,29.60
2010,04,02,08,54,26.40
2010,04,02,08,55,24.00
2010,04,02,08,56,11.40
2010,04,02,08,57,26.30
2010,04,02,08,58,17.10
2010,04,02,08,59,23.50
2010,04,02,09,00,25.30
2010,04,02,09,01,29.20
2010,04,02,09,02,25.70
2010,04,02,09,03,9.90
2010,04,02,09,04,13.20
2010,04,02,09,05,15.60
2010,04,02,09,06,14.20
2010,04,02,09,07,18.30
2010,04,02,09,08,20.40
2010,04,02,09,09,20.50
2010,04,02,09,10,23.10
2010,04,02,09,11,18.40
2010,04,02,09,12,22.50
2010,04,02,09,13,18.50
2010,04,02,09,14,16.50
2010,04,02,09,15,17.40
2010,04,02,09,16,8.00
2010,04,02,09,17,16.50
2010,04,02,09,18,19.10
2010,04,02,09,19,21.70
2010,04,02,09,20,19.70
2010,04,02,09,21,16.80
2010,04,02,09,22,26.60
2010,04,02,09,23,24.70
2010,04,02,09,24,23.70
2010,04,02,09,25,19.30
2010,04,02,09,26,23.10
2010,04,02,09,27,26.00
2010,04,02,09,28,18.30
2010,04,02,09,29,16.70
2010,04,02,09,30,20.00
2010,04,02,09,31,14.60
2010,04,02,09,32,9.20
2010,04,02,09,33,10.10
2010,04,02,09,34,9.30
2010,04,02,09,35,13.60
2010,04,02,09,36,12.20
2010,04,02,09,37,10.90
2010,04,02,09,38,18.90
2010,04,02,09,39,10.70
2010,04,02,09,40,16.30
2010,04,02,09,41,13.70
2010,04,02,09,42,6.50
2010,04,02,09,43,12.40
2010,04,02,09,44,10.60
2010,04,02,09,45,7.50
2010,04,02,09,46,15.60
2010,04,02,09,47,20.80
2010,04,02,09,48,19.60
2010,04,02,09,49,25.50
2010,04,02,09,50,25.30
2010,04,02,09,51,26.50
2010,04,02,09,52,26.50
2010,04,02,09,53,28.20
2010,04,02,09,54,29.60
2010,04,02,09,55,26.60
2010,04,02,09,56,23.60
2010,04,02,09,57,26.80
2010,04,02,09,58,26.60
2010,04,02,09,59,19.90
2010,04,02,10,00,30.70
2010,04,02,10,01,17.90
2010,04,02,10,02,23.40
2010,04,02,10,03,26.30
2010,04,02,10,04,24.10
2010,04,02,10,05,25.90
2010,04,02,10,06,22.90
2010,04,02,10,07,24.70
2010,04,02,10,08,14.30
2010,04,02,10,09,27.20
2010,04,02,10,10,23.20
2010,04,02,10,11,26.00
2010,04,02,10,12,26.20
2010,04,02,10,13,22.60
2010,04,02,10,14,14.90
2010,04,02,10,15,15.40
2010,04,02,10,16,16.70
2010,04,02,10,17,14.30
2010,04,02,10,18,18.80
2010,04,02,10,19,12.20
2010,04,02,10,20,13.30
2010,04,02,10,21,18.00
2010,04,02,10,22,23.40
2010,04,02,10,23,18.00
2010,04,02,10,24,18.40
2010,04,02,10,25,21.10
2010,04,02,10,26,21.50
2010,04,02,10,27,24.50
2010,04,02,10,28,14.50
2010,04,02,10,29,16.00
2010,04,02,10,30,25.80
2010,04,02,10,31,19.70
2010,04,02,10,32,16.10
2010,04,02,10,33,17.90
2010,04,02,10,34,19.60
2010,04,02,10,35,22.80
2010,04,02,10,36,19.60
2010,04,02,10,37,18.70
2010,04,02,10,38,20.50
2010,04,02,10,39,18.80
2010,04,02,10,40,18.00
2010,04,02,10,41,25.70
2010,04,02,10,42,16.60
2010,04,02,10,43,26.40
2010,04,02,10,44,28.00
2010,04,02,10,45,16.40
2010,04,02,10,46,20.20
2010,04,02,10,47,17.00
2010,04,02,10,48,23.60
2010,04,02,10,49,23.00
2010,04,02,10,50,24.50
2010,04,02,10,51,22.20
2010,04,02,10,52,19.10
2010,04,02,10,53,23.80
2010,04,02,10,54,12.90
2010,04,02,10,55,27.70
2010,04,02,10,56,30.50
2010,04,02,10,57,27.60
2010,04,02,10,58,28.60
2010,04,02,10,59,18.80
2010,04,02,11,00,26.20
2010,04,02,11,01,18.20
2010,04,02,11,02,20.40
2010,04,02,11,03,20.30
2010,04,02,11,04,38.40
2010,04,02,11,05,31.70
2010,04,02,11,06,16.90
2010,04,02,11,07,19.00
2010,04,02,11,08,18.10
2010,04,02,11,09,27.70
2010,04,02,11,10,26.60
2010,04,02,11,11,30.70
2010,04,02,11,12,25.10
2010,04,02,11,13,36.90
2010,04,02,11,14,31.70
2010,04,02,11,15,25.70
2010,04,02,11,16,24.20
2010,04,02,11,17,25.10
2010,04,02,11,18,24.00
2010,04,02,11,19,32.80
2010,04,02,11,20,22.40
2010,04,02,11,21,23.20
2010,04,02,11,22,19.10
2010,04,02,11,23,20.20
2010,04,02,11,24,25.80
2010,04,02,11,25,22.00
2010,04,02,11,26,22.30
2010,04,02,11,27,12.50
2010,04,02,11,28,21.20
2010,04,02,11,29,18.60
2010,04,02,11,30,22.00
2010,04,02,11,31,30.10
2010,04,02,11,32,30.30
2010,04,02,11,33,29.50
2010,04,02,11,34,27.40
2010,04,02,11,35,33.50
2010,04,02,11,36,19.10
2010,04,02,11,37,16.30
2010,04,02,11,38,33.50
2010,04,02,11,39,33.40
2010,04,02,11,40,31.00
2010,04,02,11,41,25.40
2010,04,02,11,42,24.20
2010,04,02,11,43,20.50
2010,04,02,11,44,26.20
2010,04,02,11,45,23.00
2010,04,02,11,46,27.30
2010,04,02,11,47,27.70
2010,04,02,11,48,21.20
2010,04,02,11,49,24.10
2010,04,02,11,50,25.20
2010,04,02,11,51,25.30
2010,04,02,11,52,19.40
2010,04,02,11,53,22.30
2010,04,02,11,54,25.00
2010,04,02,11,55,19.90
2010,04,02,11,56,15.60
2010,04,02,11,57,22.80
2010,04,02,11,58,23.50
2010,04,02,11,59,23.50
2010,04,02,12,00,23.90
2010,04,02,12,01,28.40
2010,04,02,12,02,27.40
2010,04,02,12,03,21.70
2010,04,02,12,04,9.90
2010,04,02,12,05,24.20
2010,04,02,12,06,30.00
2010,04,02,12,07,31.70
2010,04,02,12,08,21.20
2010,04,02,12,09,18.60
2010,04,02,12,10,25.10
2010,04,02,12,11,27.00
2010,04,02,12,12,22.90
2010,04,02,12,13,21.30
2010,04,02,12,14,27.60
2010,04,02,12,15,25.00
2010,04,02,12,16,24.10
2010,04,02,12,17,25.40
2010,04,02,12,18,32.60
2010,04,02,12,19,23.30
2010,04,02,12,20,25.40
2010,04,02,12,21,23.10
2010,04,02,12,22,30.60
2010,04,02,12,23,27.60
2010,04,02,12,24,29.60
2010,04,02,12,25,23.60
2010,04,02,12,26,30.20
2010,04,02,12,27,26.50
2010,04,02,12,28,23.50
2010,04,02,12,29,33.20
2010,04,02,12,30,31.60
2010,04,02,12,31,31.60
2010,04,02,12,32,32.40
2010,04,02,12,33,21.90
2010,04,02,12,34,24.20
2010,04,02,12,35,15.90
2010,04,02,12,36,24.50
2010,04,02,12,37,27.10
2010,04,02,12,38,22.00
2010,04,02,12,39,31.40
2010,04,02,12,40,21.40
2010,04,02,12,41,32.20
2010,04,02,12,42,33.60
2010,04,02,12,43,28.20
2010,04,02,12,44,29.00
2010,04,02,12,45,24.30
2010,04,02,12,46,24.90
2010,04,02,12,47,35.80
2010,04,02,12,48,25.20
2010,04,02,12,49,30.70
2010,04,02,12,50,25.60
2010,04,02,12,51,24.80
2010,04,02,12,52,24.30
2010,04,02,12,53,28.60
2010,04,02,12,54,20.70
2010,04,02,12,55,24.10
2010,04,02,12,56,35.10
2010,04,02,12,57,21.90
2010,04,02,12,58,19.40
2010,04,02,12,59,26.60
2010,04,02,13,00,16.30
2010,04,02,13,01,21.90
2010,04,02,13,02,27.40
2010,04,02,13,03,16.60
2010,04,02,13,04,26.30
2010,04,02,13,05,22.60
2010,04,02,13,06,25.80
2010,04,02,13,07,19.50
2010,04,02,13,08,14.10
2010,04,02,13,09,25.60
2010,04,02,13,10,21.10
2010,04,02,13,11,31.00
2010,04,02,13,12,34.00
2010,04,02,13,13,25.20
2010,04,02,13,14,15.90
2010,04,02,13,15,25.30
2010,04,02,13,16,22.40
2010,04,02,13,17,21.50
2010,04,02,13,18,19.20
2010,04,02,13,19,25.60
2010,04,02,13,20,25.30
2010,04,02,13,21,22.30
2010,04,02,13,22,22.10
2010,04,02,13,23,22.80
2010,04,02,13,24,22.40
2010,04,02,13,25,21.70
2010,04,02,13,26,31.30
2010,04,02,13,27,23.50
2010,04,02,13,28,15.40
2010,04,02,13,29,18.50
2010,04,02,13,30,30.30
2010,04,02,13,31,19.80
2010,04,02,13,32,19.10
2010,04,02,13,33,26.70
2010,04,02,13,34,19.20
2010,04,02,13,35,17.40
2010,04,02,13,36,25.80
2010,04,02,13,37,22.20
2010,04,02,13,38,27.00
2010,04,02,13,39,18.90
2010,04,02,13,40,18.50
2010,04,02,13,41,25.20
2010,04,02,13,42,23.70
2010,04,02,13,43,15.90
2010,04,02,13,44,17.40
2010,04,02,13,45,17.40
2010,04,02,13,46,18.70
2010,04,02,13,47,14.70
2010,04,02,13,48,22.20
2010,04,02,13,49,19.80
2010,04,02,13,50,17.90
2010,04,02,13,51,12.50
2010,04,02,13,52,15.60
2010,04,02,13,53,21.50
2010,04,02,13,54,19.10
2010,04,02,13,55,26.10
2010,04,02,13,56,25.10
2010,04,02,13,57,33.10
2010,04,02,13,58,27.50
2010,04,02,13,59,21.10
2010,04,02,14,00,23.30
2010,04,02,14,01,32.30
2010,04,02,14,02,18.50
2010,04,02,14,03,24.20
2010,04,02,14,04,18.00
2010,04,02,14,05,24.00
2010,04,02,14,06,17.90
2010,04,02,14,07,19.90
2010,04,02,14,08,16.00
2010,04,02,14,09,19.30
2010,04,02,14,10,20.30
2010,04,02,14,11,25.20
2010,04,02,14,12,29.50
2010,04,02,14,13,25.10
2010,04,02,14,14,27.20
2010,04,02,14,15,23.30
2010,04,02,14,16,28.80
2010,04,02,14,17,24.90
2010,04,02,14,18,18.80
2010,04,02,14,19,26.80
2010,04,02,14,20,19.00
2010,04,02,14,21,16.20
2010,04,02,14,22,20.00
2010,04,02,14,23,22.00
2010,04,02,14,24,18.50
2010,04,02,14,25,17.60
2010,04,02,14,26,12.80
2010,04,02,14,27,18.70
2010,04,02,14,28,18.30
2010,04,02,14,29,20.70
2010,04,02,14,30,9.20
2010,04,02,14,31,12.30
2010,04,02,14,32,16.90
2010,04,02,14,33,15.70
2010,04,02,14,34,22.80
2010,04,02,14,35,22.30
2010,04,02,14,36,21.20
2010,04,02,14,37,17.90
2010,04,02,14,38,14.30
2010,04,02,14,39,12.80
2010,04,02,14,40,14.70
2010,04,02,14,41,12.70
2010,04,02,14,42,9.80
2010,04,02,14,43,26.00
2010,04,02,14,44,13.90
2010,04,02,14,45,15.10
2010,04,02,14,46,13.60
2010,04,02,14,47,17.60
2010,04,02,14,48,13.30
2010,04,02,14,49,12.30
2010,04,02,14,50,19.50
2010,04,02,14,51,11.40
2010,04,02,14,52,16.50
2010,04,02,14,53,23.30
2010,04,02,14,54,10.90
2010,04,02,14,55,5.30
2010,04,02,14,56,12.50
2010,04,02,14,57,12.30
2010,04,02,14,58,15.10
2010,04,02,14,59,22.50
2010,04,02,15,00,15.00
2010,04,02,15,01,9.80
2010,04,02,15,02,18.50
2010,04,02,15,03,10.50
2010,04,02,15,04,7.90
2010,04,02,15,05,14.50
2010,04,02,15,06,9.50
2010,04,02,15,07,15.50
2010,04,02,15,08,17.70
2010,04,02,15,09,14.90
2010,04,02,15,10,8.60
2010,04,02,15,11,12.20
2010,04,02,15,12,14.10
2010,04,02,15,13,10.80
2010,04,02,15,14,24.70
2010,04,02,15,15,15.90
2010,04,02,15,16,2.70
2010,04,02,15,17,16.40
2010,04,02,15,18,15.90
2010,04,02,15,19,11.90
2010,04,02,15,20,11.40
2010,04,02,15,21,8.00
2010,04,02,15,22,14.10
2010,04,02,15,23,11.10
2010,04,02,15,24,14.60
2010,04,02,15,25,13.00
2010,04,02,15,26,16.20
2010,04,02,15,27,11.90
2010,04,02,15,28,9.30
2010,04,02,15,29,8.90
2010,04,02,15,30,9.70
2010,04,02,15,31,17.10
2010,04,02,15,32,22.40
2010,04,02,15,33,14.10
2010,04,02,15,34,19.60
2010,04,02,15,35,12.80
2010,04,02,15,36,14.30
2010,04,02,15,37,5.60
2010,04,02,15,38,5.30
2010,04,02,15,39,20.00
2010,04,02,15,40,14.80
2010,04,02,15,41,9.00
2010,04,02,15,42,13.40
2010,04,02,15,43,20.00
2010,04,02,15,44,13.70
2010,04,02,15,45,12.90
2010,04,02,15,46,20.00
2010,04,02,15,47,10.20
2010,04,02,15,48,5.30
2010,04,02,15,49,9.30
2010,04,02,15,50,9.20
2010,04,02,15,51,8.10
2010,04,02,15,52,9.00
2010,04,02,15,53,12.50
2010,04,02,15,54,16.90
2010,04,02,15,55,10.80
2010,04,02,15,56,8.50
2010,04,02,15,57,12.10
2010,04,02,15,58,15.40
2010,04,02,15,59,15.20
2010,04,02,16,00,10.30
2010,04,02,16,01,14.70
2010,04,02,16,02,23.10
2010,04,02,16,03,12.90
2010,04,02,16,04,11.90
2010,04,02,16,05,10.00
2010,04,02,16,06,12.20
2010,04,02,16,07,15.30
2010,04,02,16,08,11.90
2010,04,02,16,09,13.90
2010,04,02,16,10,20.00
2010,04,02,16,11,12.90
2010,04,02,16,12,18.80
2010,04,02,16,13,10.00
2010,04,02,16,14,13.60
2010,04,02,16,15,12.80
2010,04,02,16,16,11.70
2010,04,02,16,17,13.00
2010,04,02,16,18,17.60
2010,04,02,16,19,8.70
2010,04,02,16,20,12.90
2010,04,02,16,21,14.50
2010,04,02,16,22,14.60
2010,04,02,16,23,15.70
2010,04,02,16,24,22.00
2010,04,02,16,25,13.40
2010,04,02,16,26,13.10
2010,04,02,16,27,16.80
2010,04,02,16,28,10.10
2010,04,02,16,29,11.50
2010,04,02,16,30,11.40
2010,04,02,16,31,16.00
2010,04,02,16,32,3.70
2010,04,02,16,33,4.50
2010,04,02,16,34,5.20
2010,04,02,16,35,14.30
2010,04,02,16,36,12.60
2010,04,02,16,37,18.50
2010,04,02,16,38,8.30
2010,04,02,16,39,7.30
2010,04,02,16,40,7.80
2010,04,02,16,41,16.40
2010,04,02,16,42,11.00
2010,04,02,16,43,10.10
2010,04,02,16,44,17.40
2010,04,02,16,45,13.90
2010,04,02,16,46,15.80
2010,04,02,16,47,12.10
2010,04,02,16,48,6.40
2010,04,02,16,49,11.60
2010,04,02,16,50,13.10
2010,04,02,16,51,8.60
2010,04,02,16,52,10.40
2010,04,02,16,53,9.60
2010,04,02,16,54,7.90
2010,04,02,16,55,15.10
2010,04,02,16,56,19.90
2010,04,02,16,57,14.60
2010,04,02,16,58,20.80
2010,04,02,16,59,9.50
2010,04,02,17,00,9.60
2010,04,02,17,01,13.60
2010,04,02,17,02,8.60
2010,04,02,17,03,13.50
2010,04,02,17,04,8.60
2010,04,02,17,05,9.50
2010,04,02,17,06,11.90
2010,04,02,17,07,7.70
2010,04,02,17,08,22.20
2010,04,02,17,09,23.30
2010,04,02,17,10,11.50
2010,04,02,17,11,27.90
2010,04,02,17,12,16.30
2010,04,02,17,13,13.70
2010,04,02,17,14,24.80
2010,04,02,17,15,17.90
2010,04,02,17,16,14.70
2010,04,02,17,17,13.50
2010,04,02,17,18,5.20
2010,04,02,17,19,12.80
2010,04,02,17,20,21.70
2010,04,02,17,21,22.80
2010,04,02,17,22,10.50
2010,04,02,17,23,12.50
2010,04,02,17,24,19.70
2010,04,02,17,25,22.30
2010,04,02,17,26,13.30
2010,04,02,17,27,18.80